Time,TemperatureF,DewpointF,PressureIn,WindDirection,WindDirectionDegrees,WindSpeedMPH,WindSpeedGustMPH,Humidity,HourlyPrecipIn,Conditions,Clouds,dailyrainin,SoftwareType,DateUTC
2013-05-30 00:03:00,63.1,61.7,29.88,NE,45,4.0,7.0,95,0.02,,,0.22,meteohub,2013-05-30 05:03:00,
2013-05-30 00:09:00,63.0,61.2,29.88,NE,45,6.0,6.0,94,0.00,,,0.00,meteohub,2013-05-30 05:09:00,
2013-05-30 00:14:00,62.8,61.0,29.88,NE,45,8.0,8.0,94,0.00,,,0.00,meteohub,2013-05-30 05:14:00,
2013-05-30 00:19:00,62.8,61.0,29.88,NE,45,8.0,8.0,94,0.00,,,0.00,meteohub,2013-05-30 05:19:00,
2013-05-30 00:24:00,62.8,61.3,29.88,East,90,6.0,8.0,95,0.00,,,0.00,meteohub,2013-05-30 05:24:00,
2013-05-30 00:29:00,62.8,61.3,29.87,East,90,8.0,8.0,95,0.00,,,0.00,meteohub,2013-05-30 05:29:00,
2013-05-30 00:34:00,62.6,61.2,29.87,East,90,7.0,8.0,95,0.00,,,0.00,meteohub,2013-05-30 05:34:00,
2013-05-30 00:39:00,62.6,61.2,29.87,NE,45,8.0,8.0,95,0.00,,,0.00,meteohub,2013-05-30 05:39:00,
2013-05-30 00:44:00,62.6,61.2,29.87,East,90,6.0,9.0,95,0.00,,,0.00,meteohub,2013-05-30 05:44:00,
2013-05-30 00:49:00,62.6,61.2,29.87,East,90,6.0,9.0,95,0.00,,,0.00,meteohub,2013-05-30 05:49:00,
2013-05-30 00:54:00,62.6,61.2,29.87,East,90,4.0,9.0,95,0.00,,,0.00,meteohub,2013-05-30 05:54:00,
2013-05-30 00:59:00,62.4,61.0,29.87,East,90,5.0,7.0,95,0.00,,,0.00,meteohub,2013-05-30 05:59:00,
2013-05-30 01:04:00,62.6,61.2,29.86,NE,45,5.0,6.0,95,0.00,,,0.00,meteohub,2013-05-30 06:04:00,
2013-05-30 01:09:00,62.2,60.8,29.86,NE,45,4.0,6.0,95,0.00,,,0.00,meteohub,2013-05-30 06:09:00,
2013-05-30 01:14:00,62.2,60.8,29.86,East,90,4.0,5.0,95,0.00,,,0.00,meteohub,2013-05-30 06:14:00,
2013-05-30 01:20:00,62.4,61.0,29.86,ENE,68,4.0,5.0,95,0.00,,,0.00,meteohub,2013-05-30 06:20:00,
2013-05-30 01:25:00,62.4,61.0,29.86,ENE,68,4.0,5.0,95,0.00,,,0.00,meteohub,2013-05-30 06:25:00,
2013-05-30 01:30:00,62.6,61.2,29.86,East,90,4.0,5.0,95,0.00,,,0.00,meteohub,2013-05-30 06:30:00,
2013-05-30 01:35:00,62.6,61.2,29.85,East,90,4.0,4.0,95,0.00,,,0.00,meteohub,2013-05-30 06:35:00,
2013-05-30 01:40:00,62.6,61.5,29.85,East,90,4.0,4.0,96,0.00,,,0.00,meteohub,2013-05-30 06:40:00,
2013-05-30 01:45:00,62.8,61.7,29.85,SE,135,4.0,4.0,96,0.00,,,0.00,meteohub,2013-05-30 06:45:00,
2013-05-30 01:50:00,62.8,61.7,29.85,East,90,4.0,4.0,96,0.00,,,0.00,meteohub,2013-05-30 06:50:00,
2013-05-30 01:55:00,63.0,61.9,29.85,East,90,4.0,5.0,96,0.00,,,0.00,meteohub,2013-05-30 06:55:00,
2013-05-30 02:00:00,63.0,61.9,29.85,East,90,3.0,5.0,96,0.00,,,0.00,meteohub,2013-05-30 07:00:00,
2013-05-30 02:05:00,63.0,61.9,29.85,East,90,3.0,5.0,96,0.00,,,0.00,meteohub,2013-05-30 07:05:00,
2013-05-30 02:10:00,62.8,61.7,29.84,ENE,68,4.0,4.0,96,0.00,,,0.00,meteohub,2013-05-30 07:10:00,
2013-05-30 02:15:00,62.8,61.7,29.84,East,90,3.0,4.0,96,0.00,,,0.00,meteohub,2013-05-30 07:15:00,
2013-05-30 02:20:00,62.8,61.7,29.84,East,90,2.0,4.0,96,0.00,,,0.00,meteohub,2013-05-30 07:20:00,
2013-05-30 02:26:00,63.0,61.9,29.84,East,90,0.0,4.0,96,0.00,,,0.00,meteohub,2013-05-30 07:26:00,
2013-05-30 02:31:00,63.0,61.9,29.84,East,90,0.0,3.0,96,0.00,,,0.00,meteohub,2013-05-30 07:31:00,
2013-05-30 02:36:00,63.0,61.9,29.84,SE,135,0.0,2.0,96,0.00,,,0.00,meteohub,2013-05-30 07:36:00,
2013-05-30 02:41:00,63.1,62.1,29.84,SE,135,0.0,0.0,96,0.00,,,0.00,meteohub,2013-05-30 07:41:00,
2013-05-30 02:46:00,63.5,62.4,29.84,SE,135,4.0,4.0,96,0.00,,,0.00,meteohub,2013-05-30 07:46:00,
2013-05-30 02:51:00,63.5,62.4,29.83,SE,135,4.0,4.0,96,0.00,,,0.00,meteohub,2013-05-30 07:51:00,
2013-05-30 02:56:00,63.7,62.6,29.83,SE,135,4.0,4.0,96,0.00,,,0.00,meteohub,2013-05-30 07:56:00,
2013-05-30 03:01:00,63.7,62.6,29.84,SE,135,5.0,5.0,96,0.00,,,0.00,meteohub,2013-05-30 08:01:00,
2013-05-30 03:06:00,63.7,62.6,29.84,SE,135,5.0,5.0,96,0.00,,,0.00,meteohub,2013-05-30 08:06:00,
2013-05-30 03:11:00,64.4,63.3,29.84,South,180,5.0,5.0,96,0.00,,,0.00,meteohub,2013-05-30 08:11:00,
2013-05-30 03:16:00,64.6,63.5,29.84,South,180,6.0,7.0,96,0.00,,,0.00,meteohub,2013-05-30 08:16:00,
2013-05-30 03:21:00,64.8,63.7,29.84,SSW,203,5.0,7.0,96,0.00,,,0.00,meteohub,2013-05-30 08:21:00,
2013-05-30 03:26:00,64.9,63.5,29.84,West,270,7.0,7.0,95,0.00,,,0.00,meteohub,2013-05-30 08:26:00,
2013-05-30 03:31:00,64.9,63.1,29.84,SW,225,6.0,8.0,94,0.00,,,0.00,meteohub,2013-05-30 08:31:00,
2013-05-30 03:36:00,65.1,63.3,29.84,South,180,6.0,8.0,94,0.00,,,0.00,meteohub,2013-05-30 08:36:00,
2013-05-30 03:42:00,65.1,63.0,29.84,SW,225,8.0,8.0,93,0.00,,,0.00,meteohub,2013-05-30 08:42:00,
2013-05-30 03:47:00,65.3,63.0,29.84,West,270,5.0,8.0,92,0.00,,,0.00,meteohub,2013-05-30 08:47:00,
2013-05-30 03:52:00,65.5,63.1,29.84,SW,225,8.0,8.0,92,0.00,,,0.00,meteohub,2013-05-30 08:52:00,
2013-05-30 03:57:00,65.5,63.1,29.83,SW,225,8.0,8.0,92,0.00,,,0.00,meteohub,2013-05-30 08:57:00,
2013-05-30 04:02:00,65.7,63.3,29.84,WSW,248,5.0,8.0,92,0.00,,,0.00,meteohub,2013-05-30 09:02:00,
2013-05-30 04:07:00,65.7,63.3,29.83,WSW,248,5.0,8.0,92,0.00,,,0.00,meteohub,2013-05-30 09:07:00,
2013-05-30 04:12:00,65.8,63.5,29.83,SW,225,6.0,8.0,92,0.00,,,0.00,meteohub,2013-05-30 09:12:00,
2013-05-30 04:17:00,65.8,63.5,29.83,SW,225,6.0,8.0,92,0.00,,,0.00,meteohub,2013-05-30 09:17:00,
2013-05-30 04:22:00,66.0,63.7,29.83,SW,225,6.0,8.0,92,0.00,,,0.00,meteohub,2013-05-30 09:22:00,
2013-05-30 04:27:00,66.0,63.7,29.83,South,180,5.0,8.0,92,0.00,,,0.00,meteohub,2013-05-30 09:27:00,
2013-05-30 04:32:00,66.0,63.7,29.83,SW,225,7.0,8.0,92,0.00,,,0.00,meteohub,2013-05-30 09:32:00,
2013-05-30 04:37:00,66.2,63.5,29.83,South,180,9.0,10.0,91,0.00,,,0.00,meteohub,2013-05-30 09:37:00,
2013-05-30 04:42:00,66.4,63.7,29.83,South,180,8.0,10.0,91,0.00,,,0.00,meteohub,2013-05-30 09:42:00,
2013-05-30 04:47:00,66.7,64.0,29.83,South,180,11.0,11.0,91,0.00,,,0.00,meteohub,2013-05-30 09:47:00,
2013-05-30 04:52:00,66.7,63.7,29.83,South,180,8.0,11.0,90,0.00,,,0.00,meteohub,2013-05-30 09:52:00,
2013-05-30 04:57:00,66.9,63.5,29.82,South,180,9.0,11.0,89,0.00,,,0.00,meteohub,2013-05-30 09:57:00,
2013-05-30 05:02:00,67.1,63.7,29.82,South,180,8.0,11.0,89,0.00,,,0.00,meteohub,2013-05-30 10:02:00,
2013-05-30 05:07:00,67.1,63.7,29.82,South,180,8.0,13.0,89,0.00,,,0.00,meteohub,2013-05-30 10:07:00,
2013-05-30 05:12:00,67.5,63.9,29.82,SSE,158,9.0,14.0,88,0.00,,,0.00,meteohub,2013-05-30 10:12:00,
2013-05-30 05:17:00,67.5,63.9,29.82,SSW,203,11.0,14.0,88,0.00,,,0.00,meteohub,2013-05-30 10:17:00,
2013-05-30 05:22:00,67.3,63.7,29.82,SE,135,9.0,14.0,88,0.00,,,0.00,meteohub,2013-05-30 10:22:00,
2013-05-30 05:27:00,67.6,64.0,29.82,South,180,14.0,14.0,88,0.00,,,0.00,meteohub,2013-05-30 10:27:00,
2013-05-30 05:32:00,67.6,63.7,29.82,SW,225,11.0,14.0,87,0.00,,,0.00,meteohub,2013-05-30 10:32:00,
2013-05-30 05:37:00,67.6,63.7,29.82,South,180,7.0,14.0,87,0.00,,,0.00,meteohub,2013-05-30 10:37:00,
2013-05-30 05:42:00,67.6,63.7,29.82,SW,225,7.0,14.0,87,0.00,,,0.00,meteohub,2013-05-30 10:42:00,
2013-05-30 05:47:00,67.6,63.7,29.82,SW,225,11.0,12.0,87,0.00,,,0.00,meteohub,2013-05-30 10:47:00,
2013-05-30 05:52:00,67.6,63.3,29.82,SW,225,11.0,12.0,86,0.00,,,0.00,meteohub,2013-05-30 10:52:00,
2013-05-30 05:57:00,67.8,63.5,29.83,South,180,11.0,12.0,86,0.00,,,0.00,meteohub,2013-05-30 10:57:00,
2013-05-30 06:02:00,67.8,63.5,29.83,SE,135,11.0,12.0,86,0.00,,,0.00,meteohub,2013-05-30 11:02:00,
2013-05-30 06:07:00,68.0,63.3,29.83,South,180,11.0,11.0,85,0.00,,,0.00,meteohub,2013-05-30 11:07:00,
2013-05-30 06:12:00,68.2,63.5,29.83,SW,225,8.0,13.0,85,0.00,,,0.00,meteohub,2013-05-30 11:12:00,
2013-05-30 06:17:00,68.2,63.5,29.83,SW,225,12.0,13.0,85,0.00,,,0.00,meteohub,2013-05-30 11:17:00,
2013-05-30 06:22:00,68.4,63.3,29.83,West,270,13.0,13.0,84,0.00,,,0.00,meteohub,2013-05-30 11:22:00,
2013-05-30 06:27:00,68.4,63.3,29.84,South,180,10.0,15.0,84,0.00,,,0.00,meteohub,2013-05-30 11:27:00,
2013-05-30 06:32:00,68.5,63.1,29.83,South,180,12.0,15.0,83,0.00,,,0.00,meteohub,2013-05-30 11:32:00,
2013-05-30 06:37:00,68.7,63.3,29.83,South,180,14.0,15.0,83,0.00,,,0.00,meteohub,2013-05-30 11:37:00,
2013-05-30 06:42:00,69.1,63.7,29.83,South,180,11.0,15.0,83,0.00,,,0.00,meteohub,2013-05-30 11:42:00,
2013-05-30 06:47:00,69.3,63.5,29.83,SW,225,11.0,15.0,82,0.00,,,0.00,meteohub,2013-05-30 11:47:00,
2013-05-30 06:52:00,69.6,63.9,29.83,South,180,15.0,15.0,82,0.00,,,0.00,meteohub,2013-05-30 11:52:00,
2013-05-30 06:57:00,69.6,63.9,29.83,South,180,12.0,15.0,82,0.00,,,0.00,meteohub,2013-05-30 11:57:00,
2013-05-30 07:02:00,69.8,64.0,29.83,South,180,13.0,15.0,82,0.00,,,0.00,meteohub,2013-05-30 12:02:00,
2013-05-30 07:07:00,70.0,64.2,29.83,South,180,12.0,15.0,82,0.00,,,0.00,meteohub,2013-05-30 12:07:00,
2013-05-30 07:12:00,70.2,64.0,29.83,South,180,16.0,16.0,81,0.00,,,0.00,meteohub,2013-05-30 12:12:00,
2013-05-30 07:17:00,70.5,64.8,29.83,SW,225,12.0,16.0,82,0.00,,,0.00,meteohub,2013-05-30 12:17:00,
2013-05-30 07:22:00,70.7,64.6,29.83,SW,225,15.0,16.0,81,0.00,,,0.00,meteohub,2013-05-30 12:22:00,
2013-05-30 07:27:00,70.9,64.4,29.82,NW,315,13.0,16.0,80,0.00,,,0.00,meteohub,2013-05-30 12:27:00,
2013-05-30 07:32:00,71.2,64.8,29.82,SW,225,18.0,20.0,80,0.00,,,0.00,meteohub,2013-05-30 12:32:00,
2013-05-30 07:37:00,71.4,64.9,29.82,South,180,14.0,20.0,80,0.01,,,0.01,meteohub,2013-05-30 12:37:00,
2013-05-30 07:42:00,71.8,64.9,29.81,South,180,15.0,20.0,79,0.01,,,0.01,meteohub,2013-05-30 12:42:00,
2013-05-30 07:47:00,72.0,65.1,29.82,SW,225,17.0,22.0,79,0.01,,,0.01,meteohub,2013-05-30 12:47:00,
2013-05-30 07:52:00,72.1,64.9,29.82,South,180,17.0,22.0,78,0.01,,,0.01,meteohub,2013-05-30 12:52:00,
2013-05-30 07:57:00,72.3,65.1,29.82,South,180,20.0,22.0,78,0.01,,,0.01,meteohub,2013-05-30 12:57:00,
2013-05-30 08:02:00,72.7,65.5,29.82,South,180,25.0,25.0,78,0.01,,,0.01,meteohub,2013-05-30 13:02:00,
2013-05-30 08:07:00,72.9,65.7,29.82,SW,225,23.0,25.0,78,0.01,,,0.01,meteohub,2013-05-30 13:07:00,
2013-05-30 08:12:00,73.0,65.5,29.82,SW,225,20.0,25.0,77,0.01,,,0.01,meteohub,2013-05-30 13:12:00,
2013-05-30 08:17:00,73.2,66.0,29.82,South,180,17.0,25.0,78,0.01,,,0.01,meteohub,2013-05-30 13:17:00,
2013-05-30 08:22:00,73.4,65.7,29.82,WSW,248,20.0,25.0,77,0.01,,,0.01,meteohub,2013-05-30 13:22:00,
2013-05-30 08:27:00,73.8,66.4,29.82,SW,225,17.0,25.0,78,0.01,,,0.01,meteohub,2013-05-30 13:27:00,
2013-05-30 08:32:00,73.8,66.4,29.82,SW,225,17.0,23.0,78,0.01,,,0.01,meteohub,2013-05-30 13:32:00,
2013-05-30 08:37:00,73.8,66.0,29.82,South,180,21.0,23.0,77,0.00,,,0.01,meteohub,2013-05-30 13:37:00,
2013-05-30 08:42:00,74.3,66.9,29.81,WSW,248,17.0,23.0,78,0.00,,,0.01,meteohub,2013-05-30 13:42:00,
2013-05-30 08:47:00,74.3,66.6,29.81,SW,225,22.0,26.0,77,0.00,,,0.01,meteohub,2013-05-30 13:47:00,
2013-05-30 08:52:00,74.7,66.6,29.81,SSW,203,20.0,26.0,76,0.00,,,0.01,meteohub,2013-05-30 13:52:00,
2013-05-30 08:57:00,74.8,66.4,29.81,SW,225,28.0,28.0,75,0.00,,,0.01,meteohub,2013-05-30 13:57:00,
2013-05-30 09:02:00,75.0,66.6,29.81,SW,225,21.0,28.0,75,0.00,,,0.01,meteohub,2013-05-30 14:02:00,
2013-05-30 09:07:00,74.8,66.7,29.81,SW,225,23.0,28.0,76,0.00,,,0.01,meteohub,2013-05-30 14:07:00,
2013-05-30 09:12:00,74.8,66.4,29.81,South,180,23.0,28.0,75,0.00,,,0.01,meteohub,2013-05-30 14:12:00,
2013-05-30 09:17:00,74.7,66.9,29.81,NW,315,20.0,28.0,77,0.00,,,0.01,meteohub,2013-05-30 14:17:00,
2013-05-30 09:23:00,75.0,67.3,29.81,SW,225,15.0,28.0,77,0.00,,,0.01,meteohub,2013-05-30 14:23:00,
2013-05-30 09:28:00,75.0,66.6,29.81,SW,225,25.0,28.0,75,0.00,,,0.01,meteohub,2013-05-30 14:28:00,
2013-05-30 09:33:00,75.2,67.5,29.81,SW,225,15.0,25.0,77,0.00,,,0.01,meteohub,2013-05-30 14:33:00,
2013-05-30 09:38:00,74.5,66.4,29.81,South,180,22.0,25.0,76,0.00,,,0.01,meteohub,2013-05-30 14:38:00,
2013-05-30 09:43:00,74.3,66.6,29.81,SW,225,22.0,28.0,77,0.00,,,0.01,meteohub,2013-05-30 14:43:00,
2013-05-30 09:48:00,74.7,66.6,29.81,SW,225,20.0,28.0,76,0.00,,,0.01,meteohub,2013-05-30 14:48:00,
2013-05-30 09:53:00,75.2,67.1,29.81,WSW,248,23.0,28.0,76,0.00,,,0.01,meteohub,2013-05-30 14:53:00,
2013-05-30 09:58:00,75.4,66.9,29.80,SW,225,20.0,28.0,75,0.00,,,0.01,meteohub,2013-05-30 14:58:00,
2013-05-30 10:03:00,75.7,67.3,29.80,SW,225,18.0,23.0,75,0.00,,,0.01,meteohub,2013-05-30 15:03:00,
2013-05-30 10:08:00,76.1,66.7,29.80,SW,225,23.0,23.0,73,0.00,,,0.01,meteohub,2013-05-30 15:08:00,
2013-05-30 10:13:00,75.6,67.5,29.79,SE,135,12.0,23.0,76,0.00,,,0.01,meteohub,2013-05-30 15:13:00,
2013-05-30 10:18:00,75.4,66.6,29.80,South,180,22.0,23.0,74,0.00,,,0.01,meteohub,2013-05-30 15:18:00,
2013-05-30 10:23:00,75.7,67.3,29.80,SW,225,15.0,23.0,75,0.00,,,0.01,meteohub,2013-05-30 15:23:00,
2013-05-30 10:29:00,75.6,66.7,29.80,SSW,203,20.0,27.0,74,0.00,,,0.01,meteohub,2013-05-30 15:29:00,
2013-05-30 10:34:00,75.7,66.9,29.80,SW,225,23.0,27.0,74,0.00,,,0.01,meteohub,2013-05-30 15:34:00,
2013-05-30 10:39:00,75.7,67.6,29.80,SW,225,15.0,27.0,76,0.00,,,0.01,meteohub,2013-05-30 15:39:00,
2013-05-30 10:44:00,76.1,67.3,29.80,SE,135,23.0,23.0,74,0.00,,,0.01,meteohub,2013-05-30 15:44:00,
2013-05-30 10:49:00,76.3,67.5,29.81,SW,225,23.0,26.0,74,0.00,,,0.01,meteohub,2013-05-30 15:49:00,
2013-05-30 10:54:00,76.6,67.3,29.81,SW,225,23.0,26.0,73,0.00,,,0.01,meteohub,2013-05-30 15:54:00,
2013-05-30 10:59:00,76.3,67.5,29.81,SSW,203,16.0,26.0,74,0.00,,,0.01,meteohub,2013-05-30 15:59:00,
2013-05-30 11:04:00,76.3,66.9,29.81,South,180,23.0,27.0,73,0.00,,,0.01,meteohub,2013-05-30 16:04:00,
2013-05-30 11:09:00,75.9,67.1,29.81,South,180,22.0,27.0,74,0.00,,,0.01,meteohub,2013-05-30 16:09:00,
2013-05-30 11:14:00,76.1,67.3,29.81,South,180,23.0,27.0,74,0.00,,,0.01,meteohub,2013-05-30 16:14:00,
2013-05-30 11:19:00,76.8,67.8,29.81,West,270,17.0,28.0,74,0.00,,,0.01,meteohub,2013-05-30 16:19:00,
2013-05-30 11:24:00,76.5,67.6,29.81,SW,225,17.0,28.0,74,0.00,,,0.01,meteohub,2013-05-30 16:24:00,
2013-05-30 11:29:00,76.3,67.8,29.81,SW,225,11.0,28.0,75,0.00,,,0.01,meteohub,2013-05-30 16:29:00,
2013-05-30 11:34:00,77.4,68.9,29.81,South,180,15.0,19.0,75,0.00,,,0.01,meteohub,2013-05-30 16:34:00,
2013-05-30 11:39:00,78.1,68.4,29.80,WSW,248,18.0,19.0,72,0.00,,,0.01,meteohub,2013-05-30 16:39:00,
2013-05-30 11:45:00,77.5,67.8,29.80,SW,225,18.0,19.0,72,0.00,,,0.01,meteohub,2013-05-30 16:45:00,
2013-05-30 11:50:00,77.4,68.0,29.80,South,180,20.0,25.0,73,0.00,,,0.01,meteohub,2013-05-30 16:50:00,
2013-05-30 11:55:00,78.3,68.9,29.80,SSW,203,24.0,25.0,73,0.00,,,0.01,meteohub,2013-05-30 16:55:00,
2013-05-30 12:00:00,78.6,68.0,29.80,South,180,23.0,25.0,70,0.00,,,0.01,meteohub,2013-05-30 17:00:00,
2013-05-30 12:05:00,78.4,68.2,29.80,SW,225,17.0,24.0,71,0.00,,,0.01,meteohub,2013-05-30 17:05:00,
2013-05-30 12:10:00,77.4,66.7,29.79,SW,225,23.0,24.0,70,0.00,,,0.01,meteohub,2013-05-30 17:10:00,
2013-05-30 12:15:00,76.8,67.8,29.80,SW,225,18.0,23.0,74,0.00,,,0.01,meteohub,2013-05-30 17:15:00,
2013-05-30 12:20:00,77.5,67.8,29.79,SW,225,21.0,23.0,72,0.00,,,0.01,meteohub,2013-05-30 17:20:00,
2013-05-30 12:25:00,78.1,67.8,29.79,South,180,17.0,26.0,71,0.00,,,0.01,meteohub,2013-05-30 17:25:00,
2013-05-30 12:30:00,78.4,68.7,29.79,South,180,21.0,27.0,72,0.00,,,0.01,meteohub,2013-05-30 17:30:00,
2013-05-30 12:35:00,79.0,68.7,29.79,South,180,16.0,27.0,71,0.00,,,0.01,meteohub,2013-05-30 17:35:00,
2013-05-30 12:40:00,79.0,68.0,29.78,SW,225,20.0,27.0,69,0.00,,,0.01,meteohub,2013-05-30 17:40:00,
2013-05-30 12:45:00,78.8,67.8,29.78,South,180,22.0,27.0,69,0.00,,,0.01,meteohub,2013-05-30 17:45:00,
2013-05-30 12:50:00,78.4,66.9,29.78,SW,225,25.0,27.0,68,0.00,,,0.01,meteohub,2013-05-30 17:50:00,
2013-05-30 12:56:00,78.1,67.5,29.79,South,180,19.0,27.0,70,0.00,,,0.01,meteohub,2013-05-30 17:56:00,
2013-05-30 13:01:00,76.6,66.9,29.79,SW,225,20.0,29.0,72,0.00,,,0.01,meteohub,2013-05-30 18:01:00,
2013-05-30 13:06:00,74.7,67.3,29.79,South,180,17.0,29.0,78,0.00,,,0.01,meteohub,2013-05-30 18:06:00,
2013-05-30 13:11:00,74.8,67.5,29.79,South,180,15.0,29.0,78,0.00,,,0.01,meteohub,2013-05-30 18:11:00,
2013-05-30 13:16:00,75.2,67.1,29.79,SSW,203,19.0,23.0,76,0.00,,,0.01,meteohub,2013-05-30 18:16:00,
2013-05-30 13:21:00,75.7,67.6,29.78,SSW,203,17.0,21.0,76,0.00,,,0.01,meteohub,2013-05-30 18:21:00,
2013-05-30 13:26:00,76.3,67.8,29.78,SSW,203,18.0,21.0,75,0.00,,,0.01,meteohub,2013-05-30 18:26:00,
2013-05-30 13:31:00,76.8,67.8,29.78,South,180,12.0,21.0,74,0.00,,,0.01,meteohub,2013-05-30 18:31:00,
2013-05-30 13:36:00,77.7,68.0,29.78,SW,225,25.0,25.0,72,0.00,,,0.01,meteohub,2013-05-30 18:36:00,
2013-05-30 13:41:00,77.9,67.3,29.78,SW,225,21.0,25.0,70,0.00,,,0.01,meteohub,2013-05-30 18:41:00,
2013-05-30 13:46:00,78.3,68.0,29.77,South,180,18.0,25.0,71,0.00,,,0.01,meteohub,2013-05-30 18:46:00,
2013-05-30 13:51:00,79.0,68.4,29.77,SE,135,18.0,25.0,70,0.00,,,0.01,meteohub,2013-05-30 18:51:00,
2013-05-30 13:57:00,79.3,68.4,29.77,SW,225,17.0,23.0,69,0.00,,,0.01,meteohub,2013-05-30 18:57:00,
2013-05-30 14:02:00,79.5,68.0,29.77,SSW,203,21.0,23.0,68,0.00,,,0.01,meteohub,2013-05-30 19:02:00,
2013-05-30 14:07:00,79.9,68.0,29.76,South,180,21.0,23.0,67,0.00,,,0.01,meteohub,2013-05-30 19:07:00,
2013-05-30 14:12:00,79.9,68.4,29.76,SW,225,17.0,23.0,68,0.00,,,0.01,meteohub,2013-05-30 19:12:00,
2013-05-30 14:17:00,79.5,67.1,29.76,SW,225,21.0,23.0,66,0.00,,,0.01,meteohub,2013-05-30 19:17:00,
2013-05-30 14:22:00,79.5,66.2,29.76,SW,225,23.0,27.0,64,0.00,,,0.01,meteohub,2013-05-30 19:22:00,
2013-05-30 14:27:00,79.5,65.8,29.75,SSW,203,23.0,27.0,63,0.00,,,0.01,meteohub,2013-05-30 19:27:00,
2013-05-30 14:32:00,80.1,66.4,29.75,South,180,21.0,30.0,63,0.00,,,0.01,meteohub,2013-05-30 19:32:00,
2013-05-30 14:37:00,80.1,66.4,29.75,SW,225,23.0,30.0,63,0.00,,,0.01,meteohub,2013-05-30 19:37:00,
2013-05-30 14:42:00,80.6,68.2,29.74,South,180,11.0,27.0,66,0.00,,,0.01,meteohub,2013-05-30 19:42:00,
2013-05-30 14:47:00,80.8,68.0,29.75,SW,225,15.0,23.0,65,0.00,,,0.01,meteohub,2013-05-30 19:47:00,
2013-05-30 14:52:00,80.2,66.6,29.74,SW,225,19.0,23.0,63,0.00,,,0.01,meteohub,2013-05-30 19:52:00,
2013-05-30 14:57:00,79.9,66.2,29.74,South,180,24.0,28.0,63,0.00,,,0.01,meteohub,2013-05-30 19:57:00,
2013-05-30 15:02:00,79.7,66.4,29.74,SSW,203,15.0,28.0,64,0.00,,,0.01,meteohub,2013-05-30 20:02:00,
2013-05-30 15:07:00,79.9,65.7,29.74,SW,225,27.0,28.0,62,0.00,,,0.01,meteohub,2013-05-30 20:07:00,
2013-05-30 15:12:00,80.4,66.7,29.74,SW,225,19.0,30.0,63,0.00,,,0.01,meteohub,2013-05-30 20:12:00,
2013-05-30 15:17:00,80.2,66.6,29.74,SW,225,17.0,30.0,63,0.00,,,0.01,meteohub,2013-05-30 20:17:00,
2013-05-30 15:22:00,80.1,65.8,29.74,SW,225,23.0,30.0,62,0.00,,,0.01,meteohub,2013-05-30 20:22:00,
2013-05-30 15:28:00,80.2,66.0,29.75,WSW,248,21.0,30.0,62,0.00,,,0.01,meteohub,2013-05-30 20:28:00,
2013-05-30 15:33:00,81.0,66.2,29.75,SW,225,26.0,30.0,61,0.00,,,0.01,meteohub,2013-05-30 20:33:00,
2013-05-30 15:38:00,80.8,65.1,29.74,SW,225,23.0,30.0,59,0.00,,,0.01,meteohub,2013-05-30 20:38:00,
2013-05-30 15:43:00,79.9,64.8,29.75,SW,225,21.0,30.0,60,0.00,,,0.01,meteohub,2013-05-30 20:43:00,
2013-05-30 15:48:00,79.5,65.3,29.75,SW,225,25.0,32.0,62,0.00,,,0.01,meteohub,2013-05-30 20:48:00,
2013-05-30 15:53:00,79.0,65.3,29.73,SW,225,22.0,32.0,63,0.00,,,0.01,meteohub,2013-05-30 20:53:00,
2013-05-30 15:58:00,78.6,65.5,29.73,SW,225,17.0,32.0,64,0.00,,,0.01,meteohub,2013-05-30 20:58:00,
2013-05-30 16:03:00,78.3,64.6,29.73,South,180,28.0,28.0,63,0.00,,,0.01,meteohub,2013-05-30 21:03:00,
2013-05-30 16:08:00,78.3,65.1,29.73,South,180,21.0,28.0,64,0.00,,,0.01,meteohub,2013-05-30 21:08:00,
2013-05-30 16:13:00,78.3,64.6,29.72,South,180,23.0,31.0,63,0.00,,,0.01,meteohub,2013-05-30 21:13:00,
2013-05-30 16:18:00,78.4,64.4,29.72,SW,225,27.0,31.0,62,0.00,,,0.01,meteohub,2013-05-30 21:18:00,
2013-05-30 16:23:00,78.6,64.9,29.73,South,180,18.0,31.0,63,0.00,,,0.01,meteohub,2013-05-30 21:23:00,
2013-05-30 16:28:00,78.6,64.6,29.72,South,180,17.0,30.0,62,0.00,,,0.01,meteohub,2013-05-30 21:28:00,
2013-05-30 16:34:00,78.6,64.9,29.73,South,180,18.0,30.0,63,0.00,,,0.01,meteohub,2013-05-30 21:34:00,
2013-05-30 16:39:00,78.3,65.1,29.73,SW,225,13.0,30.0,64,0.00,,,0.01,meteohub,2013-05-30 21:39:00,
2013-05-30 16:44:00,78.1,64.9,29.73,SW,225,18.0,27.0,64,0.00,,,0.01,meteohub,2013-05-30 21:44:00,
2013-05-30 16:49:00,78.1,64.9,29.73,SW,225,20.0,27.0,64,0.00,,,0.01,meteohub,2013-05-30 21:49:00,
2013-05-30 16:54:00,77.9,65.1,29.71,SW,225,15.0,21.0,65,0.00,,,0.01,meteohub,2013-05-30 21:54:00,
2013-05-30 16:59:00,77.7,64.9,29.70,SW,225,19.0,21.0,65,0.00,,,0.01,meteohub,2013-05-30 21:59:00,
2013-05-30 17:04:00,77.4,66.0,29.70,SW,225,19.0,21.0,68,0.00,,,0.01,meteohub,2013-05-30 22:04:00,
2013-05-30 17:09:00,76.5,66.0,29.71,SW,225,22.0,22.0,70,0.00,,,0.01,meteohub,2013-05-30 22:09:00,
2013-05-30 17:14:00,75.9,67.1,29.71,SW,225,9.0,23.0,74,0.00,,,0.01,meteohub,2013-05-30 22:14:00,
2013-05-30 17:19:00,74.8,67.1,29.72,SW,225,14.0,24.0,77,0.00,,,0.01,meteohub,2013-05-30 22:19:00,
2013-05-30 17:24:00,73.9,67.1,29.72,SW,225,15.0,24.0,79,0.00,,,0.01,meteohub,2013-05-30 22:24:00,
2013-05-30 17:30:00,73.4,67.3,29.73,SW,225,16.0,19.0,81,0.00,,,0.01,meteohub,2013-05-30 22:30:00,
2013-05-30 17:35:00,73.0,67.6,29.72,WSW,248,14.0,18.0,83,0.00,,,0.01,meteohub,2013-05-30 22:35:00,
2013-05-30 17:40:00,72.9,67.8,29.71,SSW,203,13.0,20.0,84,0.00,,,0.01,meteohub,2013-05-30 22:40:00,
2013-05-30 17:45:00,73.4,68.0,29.72,South,180,11.0,20.0,83,0.00,,,0.01,meteohub,2013-05-30 22:45:00,
2013-05-30 17:50:00,73.8,66.9,29.72,SW,225,15.0,20.0,79,0.00,,,0.01,meteohub,2013-05-30 22:50:00,
2013-05-30 17:55:00,73.8,66.9,29.72,SW,225,7.0,16.0,79,0.00,,,0.01,meteohub,2013-05-30 22:55:00,
2013-05-30 18:00:00,73.6,65.8,29.71,WNW,293,9.0,15.0,77,0.00,,,0.01,meteohub,2013-05-30 23:00:00,
2013-05-30 18:05:00,73.8,64.9,29.71,SW,225,12.0,15.0,74,0.00,,,0.01,meteohub,2013-05-30 23:05:00,
2013-05-30 18:10:00,73.8,65.3,29.71,South,180,8.0,15.0,75,0.00,,,0.01,meteohub,2013-05-30 23:10:00,
2013-05-30 18:15:00,73.9,65.1,29.71,SW,225,11.0,15.0,74,0.00,,,0.01,meteohub,2013-05-30 23:15:00,
2013-05-30 18:20:00,74.1,64.9,29.71,NNE,23,15.0,15.0,73,0.00,,,0.01,meteohub,2013-05-30 23:20:00,
2013-05-30 18:25:00,73.8,64.6,29.70,SW,225,12.0,15.0,73,0.00,,,0.01,meteohub,2013-05-30 23:25:00,
2013-05-30 18:30:00,73.6,64.8,29.70,SW,225,8.0,15.0,74,0.00,,,0.01,meteohub,2013-05-30 23:30:00,
2013-05-30 18:36:00,73.4,64.9,29.71,SW,225,8.0,15.0,75,0.00,,,0.01,meteohub,2013-05-30 23:36:00,
2013-05-30 18:41:00,73.4,64.9,29.71,SW,225,9.0,13.0,75,0.00,,,0.01,meteohub,2013-05-30 23:41:00,
2013-05-30 18:46:00,73.4,64.9,29.72,SW,225,10.0,15.0,75,0.00,,,0.01,meteohub,2013-05-30 23:46:00,
2013-05-30 18:51:00,73.2,64.8,29.73,South,180,10.0,15.0,75,0.00,,,0.01,meteohub,2013-05-30 23:51:00,
2013-05-30 18:56:00,73.6,65.1,29.73,South,180,17.0,17.0,75,0.00,,,0.01,meteohub,2013-05-30 23:56:00,
2013-05-30 19:01:00,73.8,65.3,29.72,South,180,27.0,27.0,75,0.00,,,0.01,meteohub,2013-05-31 00:01:00,
2013-05-30 19:06:00,72.1,64.6,29.72,South,180,27.0,29.0,77,0.01,,,0.02,meteohub,2013-05-31 00:06:00,
2013-05-30 19:11:00,70.7,64.2,29.71,SW,225,17.0,29.0,80,0.02,,,0.04,meteohub,2013-05-31 00:11:00,
2013-05-30 19:16:00,69.6,64.2,29.71,SE,135,8.0,29.0,83,0.02,,,0.04,meteohub,2013-05-31 00:16:00,
2013-05-30 19:21:00,69.3,64.6,29.72,South,180,8.0,28.0,85,0.04,,,0.05,meteohub,2013-05-31 00:21:00,
2013-05-30 19:26:00,68.7,64.4,29.73,SW,225,12.0,17.0,86,0.04,,,0.05,meteohub,2013-05-31 00:26:00,
2013-05-30 19:31:00,68.5,64.2,29.74,SW,225,11.0,13.0,86,0.04,,,0.05,meteohub,2013-05-31 00:31:00,
2013-05-30 19:37:00,68.2,63.5,29.74,South,180,15.0,15.0,85,0.05,,,0.06,meteohub,2013-05-31 00:37:00,
2013-05-30 19:42:00,67.8,63.1,29.73,South,180,10.0,15.0,85,0.06,,,0.07,meteohub,2013-05-31 00:42:00,
2013-05-30 19:47:00,67.3,63.0,29.73,South,180,10.0,15.0,86,0.06,,,0.07,meteohub,2013-05-31 00:47:00,
2013-05-30 19:52:00,66.9,63.0,29.74,SE,135,6.0,15.0,87,0.07,,,0.08,meteohub,2013-05-31 00:52:00,
2013-05-30 19:57:00,66.7,63.1,29.75,SW,225,10.0,14.0,88,0.07,,,0.08,meteohub,2013-05-31 00:57:00,
2013-05-30 20:02:00,66.4,63.0,29.76,SW,225,9.0,14.0,89,0.07,,,0.08,meteohub,2013-05-31 01:02:00,
2013-05-30 20:07:00,66.2,62.8,29.77,South,180,14.0,14.0,89,0.06,,,0.08,meteohub,2013-05-31 01:07:00,
2013-05-30 20:12:00,66.0,63.0,29.78,South,180,12.0,14.0,90,0.05,,,0.08,meteohub,2013-05-31 01:12:00,
2013-05-30 20:17:00,65.8,62.8,29.78,SW,225,17.0,17.0,90,0.05,,,0.08,meteohub,2013-05-31 01:17:00,
2013-05-30 20:22:00,65.7,62.6,29.77,SSW,203,12.0,17.0,90,0.04,,,0.08,meteohub,2013-05-31 01:22:00,
2013-05-30 20:27:00,65.5,62.4,29.77,SW,225,11.0,17.0,90,0.04,,,0.08,meteohub,2013-05-31 01:27:00,
2013-05-30 20:32:00,65.3,62.2,29.76,South,180,11.0,17.0,90,0.02,,,0.08,meteohub,2013-05-31 01:32:00,
2013-05-30 20:37:00,65.1,62.1,29.76,SW,225,11.0,15.0,90,0.02,,,0.08,meteohub,2013-05-31 01:37:00,
2013-05-30 20:42:00,65.1,62.4,29.76,South,180,10.0,14.0,91,0.02,,,0.09,meteohub,2013-05-31 01:42:00,
2013-05-30 20:47:00,64.9,62.2,29.77,South,180,10.0,14.0,91,0.01,,,0.09,meteohub,2013-05-31 01:47:00,
2013-05-30 20:52:00,64.8,62.4,29.78,SSW,203,9.0,14.0,92,0.01,,,0.09,meteohub,2013-05-31 01:52:00,
2013-05-30 20:57:00,64.6,61.9,29.78,SW,225,16.0,16.0,91,0.01,,,0.09,meteohub,2013-05-31 01:57:00,
2013-05-30 21:02:00,64.6,61.9,29.78,NW,315,11.0,17.0,91,0.01,,,0.09,meteohub,2013-05-31 02:02:00,
2013-05-30 21:07:00,64.6,61.3,29.78,South,180,15.0,17.0,89,0.01,,,0.09,meteohub,2013-05-31 02:07:00,
2013-05-30 21:12:00,64.4,61.2,29.78,SSW,203,13.0,17.0,89,0.01,,,0.09,meteohub,2013-05-31 02:12:00,
2013-05-30 21:17:00,64.2,60.6,29.79,SW,225,16.0,17.0,88,0.01,,,0.09,meteohub,2013-05-31 02:17:00,
2013-05-30 21:22:00,63.9,59.9,29.78,South,180,18.0,18.0,87,0.01,,,0.09,meteohub,2013-05-31 02:22:00,
2013-05-30 21:27:00,63.7,59.7,29.78,SW,225,16.0,18.0,87,0.01,,,0.09,meteohub,2013-05-31 02:27:00,
2013-05-30 21:32:00,63.5,59.5,29.77,SE,135,9.0,20.0,87,0.01,,,0.09,meteohub,2013-05-31 02:32:00,
2013-05-30 21:37:00,63.3,59.7,29.78,South,180,12.0,20.0,88,0.00,,,0.09,meteohub,2013-05-31 02:37:00,
2013-05-30 21:42:00,63.1,59.5,29.78,South,180,11.0,20.0,88,0.00,,,0.09,meteohub,2013-05-31 02:42:00,
2013-05-30 21:47:00,63.0,59.4,29.79,South,180,15.0,18.0,88,0.00,,,0.09,meteohub,2013-05-31 02:47:00,
2013-05-30 21:52:00,63.0,59.4,29.78,South,180,11.0,18.0,88,0.00,,,0.09,meteohub,2013-05-31 02:52:00,
2013-05-30 21:57:00,62.6,59.0,29.78,SE,135,11.0,18.0,88,0.00,,,0.09,meteohub,2013-05-31 02:57:00,
2013-05-30 22:02:00,62.6,59.0,29.78,South,180,12.0,16.0,88,0.00,,,0.09,meteohub,2013-05-31 03:02:00,
2013-05-30 22:07:00,62.6,59.0,29.79,South,180,12.0,15.0,88,0.00,,,0.09,meteohub,2013-05-31 03:07:00,
2013-05-30 22:12:00,62.1,58.8,29.78,South,180,15.0,17.0,89,0.00,,,0.09,meteohub,2013-05-31 03:12:00,
2013-05-30 22:17:00,62.1,58.8,29.78,South,180,12.0,17.0,89,0.00,,,0.09,meteohub,2013-05-31 03:17:00,
2013-05-30 22:22:00,62.1,58.8,29.78,SW,225,11.0,19.0,89,0.00,,,0.09,meteohub,2013-05-31 03:22:00,
2013-05-30 22:27:00,62.1,59.2,29.79,South,180,14.0,19.0,90,0.00,,,0.09,meteohub,2013-05-31 03:27:00,
2013-05-30 22:32:00,62.1,59.2,29.79,South,180,12.0,19.0,90,0.00,,,0.09,meteohub,2013-05-31 03:32:00,
2013-05-30 22:37:00,62.1,59.2,29.79,South,180,12.0,18.0,90,0.00,,,0.09,meteohub,2013-05-31 03:37:00,
2013-05-30 22:42:00,62.1,59.2,29.78,SW,225,11.0,18.0,90,0.00,,,0.09,meteohub,2013-05-31 03:42:00,
2013-05-30 22:47:00,62.1,59.2,29.78,South,180,13.0,17.0,90,0.00,,,0.09,meteohub,2013-05-31 03:47:00,
2013-05-30 22:52:00,62.1,59.2,29.78,South,180,15.0,17.0,90,0.00,,,0.09,meteohub,2013-05-31 03:52:00,
2013-05-30 22:57:00,62.1,59.2,29.78,SE,135,16.0,18.0,90,0.00,,,0.09,meteohub,2013-05-31 03:57:00,
2013-05-30 23:01:00,61.9,59.2,29.78,South,180,13.0,18.0,91,0.00,,,0.09,meteohub,2013-05-31 04:01:00,
2013-05-30 23:02:00,61.9,59.2,29.78,South,180,13.0,18.0,91,0.00,,,0.09,meteohub,2013-05-31 04:02:00,
2013-05-30 23:03:00,61.9,59.2,29.78,South,180,13.0,18.0,91,0.00,,,0.09,meteohub,2013-05-31 04:03:00,
2013-05-30 23:08:00,61.9,59.2,29.77,SE,135,14.0,18.0,91,0.00,,,0.09,meteohub,2013-05-31 04:08:00,
2013-05-30 23:13:00,61.9,59.2,29.77,SW,225,14.0,17.0,91,0.00,,,0.09,meteohub,2013-05-31 04:13:00,
2013-05-30 23:18:00,61.7,59.4,29.77,SE,135,11.0,14.0,92,0.00,,,0.09,meteohub,2013-05-31 04:18:00,
2013-05-30 23:23:00,62.1,59.7,29.77,SW,225,10.0,15.0,92,0.00,,,0.09,meteohub,2013-05-31 04:23:00,
2013-05-30 23:28:00,61.7,59.4,29.77,SW,225,11.0,15.0,92,0.00,,,0.09,meteohub,2013-05-31 04:28:00,
2013-05-30 23:33:00,61.7,59.4,29.76,South,180,9.0,16.0,92,0.00,,,0.09,meteohub,2013-05-31 04:33:00,
2013-05-30 23:38:00,61.7,59.4,29.77,SW,225,11.0,16.0,92,0.00,,,0.09,meteohub,2013-05-31 04:38:00,
2013-05-30 23:43:00,61.7,59.0,29.77,South,180,9.0,16.0,91,0.00,,,0.09,meteohub,2013-05-31 04:43:00,
2013-05-30 23:48:00,61.7,59.0,29.77,South,180,12.0,15.0,91,0.00,,,0.09,meteohub,2013-05-31 04:48:00,
2013-05-30 23:53:00,61.9,59.2,29.77,South,180,11.0,15.0,91,0.00,,,0.09,meteohub,2013-05-31 04:53:00,
2013-05-30 23:58:00,61.7,59.0,29.76,South,180,13.0,15.0,91,0.00,,,0.09,meteohub,2013-05-31 04:58:00,